FENGYUN 1C DEB, 30314

Orbit data source: Space-Track

FENGYUN 1C DEB, 30314 is space debris in SSO originally from a launch on Mon, 10 May 1999 UTC launched from the Taiyaun Space Center, China (TSC). Fengyun 1C debris stems from the Chinese weather satellite Fengyun-1C, which was intentionally destroyed by a Chinese anti-satellite missile in 2007. This event dramatically increased the amount of space debris, with thousands of trackable fragments posing hazards to satellites and human spaceflight. The Fengyun 1C debris cloud has become a focal point in discussions about space sustainability and the need for international regulations to prevent the creation of new debris.

Loading next visibility...
Identifier
30314, 1999-025AAB
Orbit
SSO
Country
Flag of CNCN / PRC
Related business
Manufacturer
Unknown
Mission
Spacecraft
Bus & Motor
Unknown
Mass
Unknown
Launch date (UTC)
1999-05-10 (26 years ago)
Launch vehicle
Unknown
Launch site
Taiyaun Space Center, China (TSC)
Object type
Payload
Rocket body
Debris
Shape & HBR
Unknown
Radar Cross Section
Small (<0.1 m²)

Expand to show TLE details & history
Last TLE update: 2 days ago

TLE from 2 days ago
0 FENGYUN 1C DEB
1 30314U 99025AAB 25244.48408555  .00002528  00000-0  15787-2 0  9999
2 30314  98.3814  83.6782 0143125 286.1708  72.3747 14.00655709946778
Epoch: 2025-09-01T11:37Z
TLE epoch observation values (Epoch: 2025-09-01T11:37:04.991Z)
Latitude
-0.0001°
Longitude
-71.4816°
Altitude
864.275 km
Speed
7.436 km/s
True Right ascension
05h 34m 42s
True Declination
0° 00' 00"
Sunlit
Object was in daylight at epoch
Visualization orbit readout
Latitude
Unknown
Longitude
Unknown
Altitude
Unknown
Speed
Unknown
Apparent Right ascension
Unknown
Apparent Declination
Unknown
Sunlit
N/A
Visualization observer readout
Local Sidereal Time
06:32:44
Azimuth
Unknown
Elevation
Unknown
Doppler factor
Unknown
Orbital elements
Apogee altitude
992.7 km
Perigee altitude
784.687 km
Semi-major axis
7,266.831 km
Eccentricity
0.01431
Inclination
98.3814°
RAAN
83.6782°
Arg. of periapsis
286.1708°
True anomaly
73.94612°
Mean anomaly
72.3747°
Eccentric anomaly
73.15958°
Mean motion
3.50369 °/min
Orbital period
102.75 mins
BSTAR
0.0015787
Loading maneuver chart data...
Computing Atmospheric mass density...
Loading historical data...
Loading historical data...
Loading historical data...
Loading historical data...
Loading historical data...
Loading historical data...
Loading historical data...

Documentation

Showing up to 5 results
|